Regional Weather Roundup
Issued by NWS Columbia, SC

Home | Current Version | Previous Version | Text Only | Print | Product List | Glossary On
Versions: 1 2 3 4 5 6 7 8 9 10 11 12 13 14 15 16 17 18 19 20 21 22 23 24 25 26 27
000
ASUS42 KCAE 211510
RWRCAE
REGIONAL WEATHER ROUNDUP
NATIONAL WEATHER SERVICE COLUMBIA SC
1100 AM EDT MON APR 21 2014

NOTE: "FAIR" INDICATES FEW OR NO CLOUDS BELOW 12,000 FEET WITH NO
SIGNIFICANT WEATHER AND/OR OBSTRUCTIONS TO VISIBILITY.

NOT ALL STATIONS ARE QUALITY CONTROLLED BY THE NATIONAL
WEATHER SERVICE. USE DATA WITH CAUTION...ESPECIALLY
DEWPOINT OBSERVATIONS.

SCZ001>056-GAZ040-063>065-077-211600-
...UPSTATE SOUTH CAROLINA...

CITY           SKY/WX    TMP DP  RH WIND       PRES   REMARKS
ANDERSON       SUNNY     63  39  41 CALM      30.18F
LIBERTY        FAIR      63  32  31 MISG      30.18F
SPARTANBURG    FAIR      63  41  45 NE5       30.18F
CLEMSON        SUNNY     64  37  36 CALM      30.19F
GREENVILLE     SUNNY     62  36  37 VRB3      30.19F
GREENWOOD      SUNNY     63  38  39 NE7       30.19F
GREER          SUNNY     62  39  42 CALM      30.17F
ROCK HILL      SUNNY     62  31  31 N7        30.18S
CHESTER        FAIR      63  34  34 N8        30.18S
LAURENS        FAIR      63  37  39 NE3       30.19S


...CENTRAL SOUTH CAROLINA...

CITY           SKY/WX    TMP DP  RH WIND       PRES   REMARKS
COLUMBIA APT   MOSUNNY   63  41  44 NE7       30.15F
COLUMBIA OWENS SUNNY     63  41  44 VRB5      30.16F
DARLINGTON     SUNNY     61  45  55 N9        30.16S
FLORENCE       SUNNY     62  46  55 NE9       30.13S
MCENTIRE ANGB  MOSUNNY   62  44  51 NE6       30.15F
ORANGEBURG     SUNNY     63  44  50 NE8       30.14F
SUMTER SHAW    SUNNY     62  46  55 NE10      30.13F
NEWBERRY       FAIR      61  34  36 NE8       30.20F
AIKEN          FAIR      63  41  45 N7        30.18F
BARNWELL       FAIR      64  45  48 NE8       30.15F
MANNING        FAIR      63  50  63 N9        30.13S
CAMDEN         FAIR      59  45  58 NE5       30.16F
LANCASTER      FAIR      59  27  29 NE6       30.17F
WINNSBORO      FAIR      61  32  33 NE8       30.16F


...EASTERN AND COASTAL SOUTH CAROLINA...

CITY           SKY/WX    TMP DP  RH WIND       PRES   REMARKS
MYRTLE BEACH   SUNNY     63  50  63 N17       30.07S
N MYRTLE BCH   SUNNY     63  52  67 N16G22    30.07S
CONWAY         FAIR      63  52  67 NW6       30.10S HAZE
MARION         FAIR      61  48  63 N10       30.12S
HARTSVILLE     FAIR      63  43  48 N8        30.15F
FLORENCE       SUNNY     62  46  55 NE9       30.13S
DARLINGTON     SUNNY     61  45  55 N9        30.16S
CHARLESTON APT SUNNY     68  50  52 N13       30.10S
WALTERBORO     SUNNY     64  50  59 N10       30.12F
BEAUFORT       MOSUNNY   68  51  54 NE10      30.11S


...EASTERN GEORGIA...

CITY           SKY/WX    TMP DP  RH WIND       PRES   REMARKS
AUGUSTA BUSH F SUNNY     65  40  39 N7        30.16F
AUGUSTA DANIEL SUNNY     64  41  42 N7        30.17F
THOMSON        SUNNY     62  45  54 NE6       30.22F
WASHINGTON     FAIR      64  41  42 NE5       30.18F
CLAXTON        FAIR      68  54  60 N6        30.13F
SYLVANIA       SUNNY     67  48  49 N7        30.14F
STATESBORO     SUNNY     66  43  43 NE7       30.13F
SAVANNAH       MOSUNNY   69  52  54 N9        30.11F


...SOUTHERN NORTH CAROLINA...

CITY           SKY/WX    TMP DP  RH WIND       PRES   REMARKS
CHARLOTTE      MOSUNNY   62  39  42 N7        30.18S
MONROE         SUNNY     60  29  30 N8        30.16F
WADESBORO      SUNNY     58  31  36 N5        30.16F
ROCKINGHAM       N/A     60  44  55 N5        30.15S
RUTHERFORDTON  SUNNY     60  39  45 SW6       30.17F
ASHEVILLE      SUNNY     59  40  49 CALM      30.18F

$$



USA.gov is the U.S. government's official web portal to all federal, state and local government web resources and services.